map of KHG home
Great Circle Mapper logo
KHG - Airport
Location
City:  Kashgar, Xinjiang Uyghur, China
Near (Alt.):Kashi
ICAO / IATA:ZWSH / KHG

Details
Type:Airport (Aerodrome, Airfield)
Use:Public/Civil
Latitude:3932'35"N (39.542922)
Longitude:7601'12"E (76.019956)
Datum:WGS 1984
Elevation:4529 ft (1380 m)
Runways:1
Longest:10499 × 135 ft (3200 × 41 m), paved

Time
Time Zone:UTC+8
Local Time:

Weather
METAR:ZWSH 241600Z AUTO 00000MPS 1300 R26/1300N SA 16/M12 Q1019
TAF:ZWSH 241527Z 2418/2518 VRB02MPS 0700 DU VV010 TX18/2509Z TN10/2500Z
BECMG 2503/2504 36003MPS 0800 DU VV020
BECMG 2512/2513 32004MPS

Related Locations
Nearby:
Farthest:IPC: 11523 mi / 18544 km
Easter Island (Isla de Pascua, Rapa Nui) [Mataveri Intl], VS, CL

Find:

   beyond  
but within

Other Information
Maps:
NOTAMs:
Links:
Sources:

  
flag of China   

Sectional Chart

Flight Planning
at skyvector.com

Satellite Image

Google Maps Satellite View

 

Copyright © 2004-2014 Karl L. Swartz. All rights reserved.
The Great Circle Mapper name and logo are trademarks of the Great Circle Mapper.
All other trademarks mentioned herein belong to their respective owners.
Please see credits for attibutions and further copyright information.

  Follow gcmap on Facebook Follow gcmap on Twitter

hCard Microformat

Geo Microformat